| time (UTC) | temp F | wind direction | speed knots | gust knots | rain 1hr in | rain 24hr in | rain mn in | humidity % | barometer mb |
| 20260506202004 | 55 | 174 | 5.2 | 15.6 | 0.00 | 0.01 | 0.01 | 98 | 1008.0 |
| 20260506201514 | 55 | 250 | 7.0 | 15.6 | 0.00 | 0.01 | 0.01 | 98 | 1008.0 |
| 20260506201005 | 55 | 257 | 3.5 | 10.4 | 0.00 | 0.01 | 0.01 | 98 | 1008.0 |
| 20260506200507 | 55 | 226 | 4.3 | 20.9 | 0.00 | 0.01 | 0.01 | 98 | 1008.1 |
| 20260506200022 | 55 | 248 | 7.0 | 20.9 | 0.01 | 0.01 | 0.01 | 98 | 1008.2 |
| 20260506200004 | 55 | 244 | 7.0 | 19.1 | 0.01 | 0.01 | 0.01 | 98 | 1008.9 |
| 20260506195504 | 55 | 228 | 7.0 | 14.8 | 0.01 | 0.01 | 0.01 | 98 | 1008.6 |
| 20260506195004 | 55 | 219 | 4.3 | 14.8 | 0.01 | 0.01 | 0.01 | 98 | 1008.8 |
| 20260506194534 | 55 | 226 | 4.3 | 19.1 | 0.01 | 0.01 | 0.01 | 98 | 1008.9 |
| 20260506194511 | 55 | 272 | 4.3 | 20.0 | 0.01 | 0.01 | 0.01 | 98 | 1009.4 |
| 20260506194007 | 55 | 236 | 7.0 | 19.1 | 0.01 | 0.01 | 0.01 | 98 | 1008.9 |
| 20260506193507 | 55 | 238 | 7.0 | 14.8 | 0.01 | 0.01 | 0.01 | 98 | 1008.9 |
| 20260506193022 | 55 | 222 | 7.0 | 15.6 | 0.01 | 0.01 | 0.01 | 98 | 1009.0 |
| 20260506192504 | 55 | 233 | 6.1 | 15.6 | 0.01 | 0.01 | 0.01 | 98 | 1009.2 |
| 20260506192004 | 55 | 210 | 6.1 | 16.5 | 0.01 | 0.01 | 0.01 | 98 | 1009.0 |
| 20260506191514 | 55 | 217 | 7.8 | 16.5 | 0.01 | 0.01 | 0.01 | 97 | 1009.0 |
| 20260506191006 | 55 | 236 | 7.0 | 18.2 | 0.01 | 0.01 | 0.01 | 97 | 1009.2 |
| 20260506190508 | 55 | 224 | 5.2 | 18.2 | 0.01 | 0.01 | 0.01 | 97 | 1009.1 |
| 20260506190010 | 55 | 272 | 7.0 | 14.8 | 0.00 | 0.00 | 0.00 | 97 | 1009.2 |
| 20260506190004 | 55 | 261 | 7.0 | 13.9 | 0.00 | 0.00 | 0.00 | 97 | 1009.8 |
| 20260506185503 | 55 | 244 | 4.3 | 14.8 | 0.00 | 0.00 | 0.00 | 96 | 1009.2 |
| 20260506185004 | 56 | 238 | 5.2 | 16.5 | 0.00 | 0.00 | 0.00 | 96 | 1009.4 |
| 20260506184518 | 56 | 214 | 6.1 | 16.5 | 0.00 | 0.00 | 0.00 | 96 | 1009.8 |
| 20260506184007 | 56 | 239 | 3.5 | 14.8 | 0.00 | 0.00 | 0.00 | 96 | 1009.7 |
| 20260506183508 | 56 | 221 | 5.2 | 14.8 | 0.00 | 0.00 | 0.00 | 95 | 1009.7 |
| 20260506183021 | 56 | 259 | 5.2 | 13.0 | 0.00 | 0.00 | 0.00 | 95 | 1009.8 |
| 20260506182507 | 56 | 225 | 4.3 | 12.2 | 0.00 | 0.00 | 0.00 | 95 | 1009.9 |
| 20260506182011 | 56 | 229 | 5.2 | 12.2 | 0.00 | 0.00 | 0.00 | 95 | 1009.9 |
| 20260506181528 | 56 | 214 | 6.1 | 14.8 | 0.00 | 0.00 | 0.00 | 94 | 1009.9 |
| 20260506181004 | 57 | 233 | 7.0 | 15.6 | 0.00 | 0.00 | 0.00 | 94 | 1010.1 |
| 20260506180506 | 57 | 207 | 5.2 | 15.6 | 0.00 | 0.00 | 0.00 | 94 | 1010.2 |
| 20260506180015 | 57 | 312 | 4.3 | 13.0 | 0.00 | 0.00 | 0.00 | 93 | 1010.3 |
| 20260506180002 | 57 | 307 | 4.3 | 13.9 | 0.00 | 0.00 | 0.00 | 94 | 1010.8 |
| 20260506175503 | 57 | 245 | 2.6 | 16.5 | 0.00 | 0.00 | 0.00 | 93 | 1010.5 |
| 20260506175007 | 57 | 236 | 3.5 | 16.5 | 0.00 | 0.00 | 0.00 | 93 | 1010.4 |
| 20260506174519 | 57 | 229 | 5.2 | 16.5 | 0.00 | 0.00 | 0.00 | 93 | 1010.2 |
| 20260506174008 | 57 | 169 | 7.8 | 15.6 | 0.00 | 0.00 | 0.00 | 93 | 1010.3 |
| 20260506173507 | 58 | 280 | 5.2 | 14.8 | 0.00 | 0.00 | 0.00 | 92 | 1010.5 |
| 20260506173026 | 58 | 264 | 6.1 | 14.8 | 0.00 | 0.00 | 0.00 | 92 | 1010.6 |
| 20260506172504 | 58 | 228 | 7.0 | 13.0 | 0.00 | 0.00 | 0.00 | 93 | 1010.6 |
| 20260506172005 | 58 | 240 | 4.3 | 18.2 | 0.00 | 0.00 | 0.00 | 92 | 1010.6 |
| 20260506171518 | 58 | 231 | 6.1 | 18.2 | 0.00 | 0.00 | 0.00 | 93 | 1010.7 |
| 20260506171003 | 58 | 257 | 5.2 | 14.8 | 0.00 | 0.00 | 0.00 | 92 | 1010.9 |
| 20260506170503 | 58 | 250 | 6.1 | 14.8 | 0.00 | 0.00 | 0.00 | 93 | 1010.9 |
| 20260506170012 | 58 | 264 | 4.3 | 13.0 | 0.00 | 0.00 | 0.00 | 92 | 1011.0 |
| 20260506170002 | 58 | 280 | 5.2 | 13.9 | 0.00 | 0.00 | 0.00 | 93 | 1011.5 |
| 20260506165506 | 58 | 248 | 5.2 | 13.0 | 0.00 | 0.00 | 0.00 | 92 | 1011.0 |
| 20260506165004 | 58 | 237 | 4.3 | 13.9 | 0.00 | 0.00 | 0.00 | 92 | 1011.2 |
| 20260506164520 | 59 | 256 | 5.2 | 13.9 | 0.00 | 0.00 | 0.00 | 91 | 1011.2 |
| 20260506164008 | 59 | 233 | 4.3 | 13.9 | 0.00 | 0.00 | 0.00 | 91 | 1011.2 |
| 20260506163507 | 59 | 269 | 5.2 | 13.0 | 0.00 | 0.00 | 0.00 | 91 | 1011.2 |
| 20260506163020 | 60 | 268 | 4.3 | 14.8 | 0.00 | 0.00 | 0.00 | 91 | 1011.2 |
| 20260506162503 | 60 | 193 | 6.1 | 14.8 | 0.00 | 0.00 | 0.00 | 91 | 1011.4 |
| 20260506162003 | 60 | 243 | 5.2 | 16.5 | 0.00 | 0.00 | 0.00 | 92 | 1011.3 |
| 20260506161512 | 60 | 207 | 7.8 | 19.1 | 0.00 | 0.00 | 0.00 | 91 | 1011.5 |
| 20260506161003 | 60 | 267 | 7.0 | 19.1 | 0.00 | 0.00 | 0.00 | 92 | 1011.6 |
| 20260506160504 | 60 | 255 | 5.2 | 14.8 | 0.00 | 0.00 | 0.00 | 93 | 1011.9 |
| 20260506160011 | 59 | 242 | 5.2 | 14.8 | 0.00 | 0.00 | 0.00 | 93 | 1011.7 |
| 20260506160007 | 59 | 244 | 5.2 | 15.6 | 0.00 | 0.00 | 0.00 | 93 | 1012.4 |
| 20260506155503 | 59 | 264 | 4.3 | 13.0 | 0.00 | 0.00 | 0.00 | 93 | 1011.9 |
| 20260506155003 | 58 | 235 | 6.1 | 13.0 | 0.00 | 0.00 | 0.00 | 93 | 1011.8 |
| 20260506154516 | 58 | 250 | 5.2 | 13.0 | 0.00 | 0.00 | 0.00 | 93 | 1011.8 |
| 20260506154007 | 58 | 266 | 3.5 | 14.8 | 0.00 | 0.00 | 0.00 | 93 | 1011.9 |
| 20260506153509 | 58 | 269 | 5.2 | 14.8 | 0.00 | 0.00 | 0.00 | 92 | 1012.0 |
| 20260506153008 | 59 | 248 | 4.3 | 14.8 | 0.00 | 0.00 | 0.00 | 92 | 1011.9 |
| 20260506152504 | 59 | 221 | 4.3 | 14.8 | 0.00 | 0.00 | 0.00 | 91 | 1012.0 |
| 20260506152007 | 59 | 274 | 7.0 | 14.8 | 0.00 | 0.00 | 0.00 | 91 | 1012.0 |
| 20260506151515 | 60 | 259 | 4.3 | 12.2 | 0.00 | 0.00 | 0.00 | 91 | 1012.1 |
| 20260506151009 | 60 | 263 | 3.5 | 14.8 | 0.00 | 0.00 | 0.00 | 91 | 1012.1 |
| 20260506150506 | 60 | 255 | 6.1 | 15.6 | 0.00 | 0.00 | 0.00 | 91 | 1012.0 |
| 20260506150010 | 60 | 259 | 7.8 | 15.6 | 0.00 | 0.00 | 0.00 | 91 | 1011.9 |
| 20260506150005 | 60 | 276 | 7.8 | 15.6 | 0.00 | 0.00 | 0.00 | 92 | 1012.6 |
| 20260506145504 | 60 | 225 | 6.1 | 14.8 | 0.00 | 0.00 | 0.00 | 92 | 1011.8 |
| 20260506145005 | 59 | 233 | 5.2 | 16.5 | 0.00 | 0.00 | 0.00 | 92 | 1011.9 |
| 20260506144512 | 59 | 261 | 6.1 | 16.5 | 0.00 | 0.00 | 0.00 | 92 | 1012.0 |
| 20260506144014 | 59 | 290 | 6.1 | 15.6 | 0.00 | 0.00 | 0.00 | 92 | 1012.2 |
| 20260506143505 | 59 | 250 | 6.1 | 15.6 | 0.00 | 0.00 | 0.00 | 92 | 1012.2 |
| 20260506143033 | 59 | 257 | 6.1 | 15.6 | 0.00 | 0.00 | 0.00 | 92 | 1012.2 |
| 20260506142504 | 59 | 216 | 7.0 | 16.5 | 0.00 | 0.00 | 0.00 | 92 | 1012.2 |
| 20260506142004 | 59 | 241 | 6.1 | 17.4 | 0.00 | 0.00 | 0.00 | 93 | 1012.2 |
| 20260506141514 | 59 | 198 | 6.1 | 18.2 | 0.00 | 0.00 | 0.00 | 93 | 1012.1 |
| 20260506141008 | 58 | 266 | 5.2 | 18.2 | 0.00 | 0.00 | 0.00 | 92 | 1011.9 |
| 20260506140505 | 59 | 245 | 7.0 | 15.6 | 0.00 | 0.00 | 0.00 | 92 | 1011.9 |
| 20260506140020 | 59 | 276 | 6.1 | 15.6 | 0.00 | 0.00 | 0.00 | 92 | 1011.9 |
| 20260506140001 | 59 | 228 | 6.1 | 16.5 | 0.00 | 0.00 | 0.00 | 93 | 1012.6 |
| 20260506135508 | 59 | 254 | 6.1 | 21.7 | 0.00 | 0.00 | 0.00 | 92 | 1012.0 |
| 20260506135008 | 59 | 231 | 7.8 | 21.7 | 0.00 | 0.00 | 0.00 | 92 | 1011.9 |
| 20260506134508 | 59 | 259 | 6.1 | 16.5 | 0.00 | 0.00 | 0.00 | 92 | 1011.8 |
| 20260506134003 | 59 | 225 | 3.5 | 16.5 | 0.00 | 0.00 | 0.00 | 91 | 1011.7 |
| 20260506133506 | 59 | 212 | 7.0 | 14.8 | 0.00 | 0.00 | 0.00 | 92 | 1011.7 |
| 20260506133012 | 59 | 237 | 7.0 | 14.8 | 0.00 | 0.00 | 0.00 | 92 | 1011.7 |
| 20260506132509 | 59 | 269 | 6.1 | 13.9 | 0.00 | 0.00 | 0.00 | 93 | 1011.8 |
| 20260506132009 | 59 | 337 | 7.0 | 16.5 | 0.00 | 0.00 | 0.00 | 92 | 1012.1 |
| 20260506131522 | 59 | 204 | 4.3 | 17.4 | 0.00 | 0.00 | 0.00 | 92 | 1012.1 |
| 20260506131008 | 59 | 262 | 5.2 | 17.4 | 0.00 | 0.00 | 0.00 | 92 | 1012.1 |
| 20260506130510 | 59 | 201 | 7.8 | 17.4 | 0.00 | 0.00 | 0.00 | 93 | 1012.1 |
| 20260506130022 | 59 | 252 | 7.0 | 19.1 | 0.00 | 0.00 | 0.00 | 93 | 1012.1 |
| 20260506130002 | 59 | 249 | 7.0 | 20.0 | 0.00 | 0.00 | 0.00 | 93 | 1012.7 |
| 20260506125507 | 59 | 269 | 4.3 | 19.1 | 0.00 | 0.00 | 0.00 | 93 | 1012.3 |
| 20260506125006 | 58 | 225 | 7.0 | 15.6 | 0.00 | 0.00 | 0.00 | 94 | 1012.2 |
| 20260506124524 | 58 | 262 | 5.2 | 16.5 | 0.00 | 0.00 | 0.00 | 94 | 1012.2 |
| 20260506124008 | 58 | 255 | 7.0 | 16.5 | 0.00 | 0.00 | 0.00 | 94 | 1012.2 |
| 20260506123504 | 58 | 274 | 6.1 | 14.8 | 0.00 | 0.00 | 0.00 | 95 | 1012.2 |
| 20260506123014 | 58 | 220 | 5.2 | 14.8 | 0.00 | 0.00 | 0.00 | 95 | 1012.2 |
| 20260506122504 | 58 | 214 | 4.3 | 14.8 | 0.00 | 0.00 | 0.00 | 96 | 1012.3 |
| 20260506122006 | 57 | 226 | 5.2 | 11.3 | 0.00 | 0.00 | 0.00 | 97 | 1012.1 |
| 20260506121515 | 57 | 278 | 3.5 | 12.2 | 0.00 | 0.00 | 0.00 | 97 | 1012.2 |
| 20260506121005 | 57 | 202 | 6.1 | 14.8 | 0.00 | 0.00 | 0.00 | 98 | 1012.3 |
| 20260506120510 | 56 | 276 | 7.0 | 14.8 | 0.00 | 0.00 | 0.00 | 98 | 1012.3 |
| 20260506120020 | 56 | 242 | 3.5 | 10.4 | 0.00 | 0.00 | 0.00 | 99 | 1012.3 |
| 20260506120006 | 56 | 240 | 3.5 | 9.6 | 0.00 | 0.00 | 0.00 | 99 | 1012.7 |
| 20260506115506 | 56 | 229 | 5.2 | 10.4 | 0.00 | 0.00 | 0.00 | 99 | 1012.2 |
| 20260506115010 | 56 | 282 | 3.5 | 9.6 | 0.00 | 0.00 | 0.00 | 99 | 1012.1 |
| 20260506114532 | 55 | 278 | 4.3 | 9.6 | 0.00 | 0.00 | 0.00 | 99 | 1012.2 |
| 20260506114006 | 55 | 249 | 3.5 | 9.6 | 0.00 | 0.00 | 0.00 | 99 | 1012.2 |
| 20260506113509 | 55 | 299 | 3.5 | 12.2 | 0.00 | 0.00 | 0.00 | 100 | 1012.2 |
| 20260506113016 | 55 | 241 | 3.5 | 16.5 | 0.00 | 0.00 | 0.00 | 100 | 1012.3 |
| 20260506112507 | 55 | 269 | 6.1 | 16.5 | 0.00 | 0.00 | 0.00 | 100 | 1012.2 |
| 20260506112007 | 54 | 288 | 4.3 | 14.8 | 0.00 | 0.00 | 0.00 | 100 | 1012.2 |
| 20260506111512 | 54 | 258 | 3.5 | 14.8 | 0.00 | 0.00 | 0.00 | 100 | 1012.3 |
| 20260506111006 | 54 | 283 | 4.3 | 11.3 | 0.00 | 0.00 | 0.00 | 100 | 1012.3 |
| 20260506110506 | 54 | 252 | 5.2 | 11.3 | 0.00 | 0.00 | 0.00 | 100 | 1012.4 |
| 20260506110018 | 54 | 250 | 3.5 | 13.9 | 0.00 | 0.00 | 0.00 | 100 | 1012.3 |
| 20260506110006 | 54 | 247 | 3.5 | 13.9 | 0.00 | 0.00 | 0.00 | 100 | 1013.1 |
| 20260506105508 | 53 | 226 | 6.1 | 13.9 | 0.00 | 0.00 | 0.00 | 100 | 1012.3 |
| 20260506105012 | 53 | 286 | 4.3 | 14.8 | 0.00 | 0.00 | 0.00 | 100 | 1012.4 |
| 20260506104522 | 53 | 224 | 5.2 | 14.8 | 0.00 | 0.00 | 0.00 | 100 | 1012.3 |
| 20260506104003 | 53 | 205 | 4.3 | 9.6 | 0.00 | 0.00 | 0.00 | 100 | 1012.3 |
| 20260506103505 | 53 | 236 | 3.5 | 11.3 | 0.00 | 0.00 | 0.00 | 100 | 1012.3 |
| 20260506103018 | 53 | 183 | 4.3 | 11.3 | 0.00 | 0.00 | 0.00 | 100 | 1012.2 |
| 20260506102507 | 53 | 202 | 4.3 | 10.4 | 0.00 | 0.00 | 0.00 | 100 | 1012.2 |
| 20260506102010 | 53 | 264 | 5.2 | 10.4 | 0.00 | 0.00 | 0.00 | 100 | 1012.2 |
| 20260506101543 | 53 | 214 | 3.5 | 12.2 | 0.00 | 0.00 | 0.00 | 100 | 1012.0 |
| 20260506101010 | 53 | 241 | 4.3 | 12.2 | 0.00 | 0.00 | 0.00 | 100 | 1012.0 |
| 20260506100504 | 53 | 254 | 4.3 | 12.2 | 0.00 | 0.00 | 0.00 | 100 | 1011.9 |
| 20260506100014 | 53 | 247 | 3.5 | 12.2 | 0.00 | 0.00 | 0.00 | 100 | 1012.1 |
| 20260506100002 | 53 | 244 | 3.5 | 13.0 | 0.00 | 0.00 | 0.00 | 100 | 1012.7 |
| 20260506095506 | 53 | 270 | 4.3 | 13.9 | 0.00 | 0.00 | 0.00 | 100 | 1012.1 |
| 20260506095008 | 53 | 220 | 2.6 | 13.9 | 0.00 | 0.00 | 0.00 | 100 | 1012.1 |
| 20260506094517 | 53 | 251 | 5.2 | 11.3 | 0.00 | 0.00 | 0.00 | 100 | 1012.1 |
| 20260506094006 | 53 | 264 | 5.2 | 11.3 | 0.00 | 0.00 | 0.00 | 100 | 1012.2 |
| 20260506093507 | 53 | 264 | 3.5 | 10.4 | 0.00 | 0.00 | 0.00 | 99 | 1012.2 |
| 20260506093023 | 53 | 248 | 1.7 | 10.4 | 0.00 | 0.00 | 0.00 | 99 | 1012.2 |
| 20260506092508 | 53 | 243 | 2.6 | 10.4 | 0.00 | 0.00 | 0.00 | 100 | 1012.2 |
| 20260506092010 | 53 | 249 | 4.3 | 8.7 | 0.00 | 0.00 | 0.00 | 99 | 1012.1 |
| 20260506091525 | 53 | 233 | 3.5 | 8.7 | 0.00 | 0.00 | 0.00 | 99 | 1012.3 |
| 20260506091010 | 53 | 276 | 3.5 | 11.3 | 0.00 | 0.00 | 0.00 | 99 | 1012.3 |
| 20260506090512 | 53 | 245 | 3.5 | 12.2 | 0.00 | 0.00 | 0.00 | 99 | 1012.4 |
| 20260506090026 | 53 | 290 | 5.2 | 12.2 | 0.00 | 0.00 | 0.00 | 99 | 1012.4 |
| 20260506090001 | 53 | 286 | 5.2 | 13.0 | 0.00 | 0.00 | 0.00 | 100 | 1013.0 |
| 20260506085509 | 53 | 247 | 3.5 | 12.2 | 0.00 | 0.00 | 0.00 | 99 | 1012.5 |
| 20260506085004 | 53 | 210 | 2.6 | 12.2 | 0.00 | 0.00 | 0.00 | 99 | 1012.6 |
| 20260506084519 | 54 | 231 | 4.3 | 12.2 | 0.00 | 0.00 | 0.00 | 99 | 1012.6 |
| 20260506084007 | 54 | 235 | 4.3 | 11.3 | 0.00 | 0.00 | 0.00 | 99 | 1012.5 |
| 20260506083506 | 54 | 248 | 7.0 | 12.2 | 0.00 | 0.00 | 0.00 | 99 | 1012.6 |
| 20260506083020 | 54 | 237 | 2.6 | 13.0 | 0.00 | 0.00 | 0.00 | 99 | 1012.6 |
| 20260506082507 | 54 | 257 | 1.7 | 13.0 | 0.00 | 0.00 | 0.00 | 99 | 1012.6 |
| 20260506082012 | 54 | 262 | 5.2 | 13.0 | 0.00 | 0.00 | 0.00 | 99 | 1012.6 |
| 20260506081526 | 54 | 223 | 3.5 | 12.2 | 0.00 | 0.00 | 0.00 | 99 | 1012.6 |
| 20260506081011 | 54 | 271 | 6.1 | 15.6 | 0.00 | 0.00 | 0.00 | 99 | 1012.5 |
| 20260506080516 | 54 | 233 | 7.0 | 15.6 | 0.00 | 0.00 | 0.00 | 99 | 1012.5 |
| 20260506073508 | 54 | 259 | 4.3 | 11.3 | 0.00 | 0.00 | 0.00 | 99 | 1012.8 |
| 20260506073020 | 54 | 213 | 3.5 | 11.3 | 0.00 | 0.00 | 0.00 | 99 | 1012.7 |
| 20260506072515 | 54 | 248 | 4.3 | 10.4 | 0.00 | 0.00 | 0.00 | 99 | 1012.7 |
| 20260506072008 | 54 | 236 | 3.5 | 13.0 | 0.00 | 0.00 | 0.00 | 99 | 1012.8 |
| 20260506071522 | 54 | 290 | 4.3 | 18.2 | 0.00 | 0.00 | 0.00 | 99 | 1012.6 |
| 20260506071011 | 54 | 275 | 4.3 | 18.2 | 0.00 | 0.00 | 0.00 | 99 | 1012.6 |
| 20260506070508 | 54 | 281 | 4.3 | 13.9 | 0.00 | 0.00 | 0.00 | 99 | 1012.7 |
| 20260506062511 | 55 | 231 | 4.3 | 12.2 | 0.00 | 0.00 | 0.00 | 98 | 1012.5 |
| 20260506062009 | 55 | 270 | 4.3 | 12.2 | 0.00 | 0.00 | 0.00 | 98 | 1012.6 |
| 20260506061521 | 55 | 271 | 4.3 | 11.3 | 0.00 | 0.00 | 0.00 | 98 | 1012.6 |
| 20260506061011 | 55 | 261 | 5.2 | 11.3 | 0.00 | 0.00 | 0.00 | 98 | 1012.6 |
| 20260506060508 | 55 | 248 | 3.5 | 13.9 | 0.00 | 0.00 | 0.00 | 98 | 1012.6 |
| 20260506051012 | 55 | 186 | 7.0 | 14.8 | 0.00 | 0.00 | 0.00 | 97 | 1013.0 |
| 20260506050512 | 55 | 245 | 5.2 | 13.0 | 0.00 | 0.00 | 0.00 | 97 | 1013.0 |
| 20260506045007 | 55 | 231 | 5.2 | 17.4 | 0.00 | 0.00 | 0.00 | 98 | 1013.0 |
| 20260506044526 | 54 | 228 | 8.7 | 17.4 | 0.00 | 0.00 | 0.00 | 98 | 1013.0 |
| 20260506044011 | 54 | 224 | 5.2 | 14.8 | 0.00 | 0.00 | 0.00 | 98 | 1013.0 |
| 20260506043507 | 54 | 212 | 5.2 | 13.9 | 0.00 | 0.00 | 0.00 | 98 | 1013.0 |
| 20260506043027 | 54 | 215 | 7.0 | 15.6 | 0.00 | 0.00 | 0.00 | 97 | 1013.0 |
| 20260506043004 | 54 | 214 | 7.0 | 15.6 | 0.00 | 0.00 | 0.00 | 98 | 1013.6 |
| 20260506042511 | 54 | 251 | 5.2 | 15.6 | 0.00 | 0.00 | 0.00 | 97 | 1013.1 |
| 20260506042019 | 54 | 231 | 7.8 | 12.2 | 0.00 | 0.00 | 0.00 | 97 | 1013.1 |
| 20260506041532 | 54 | 229 | 6.1 | 12.2 | 0.00 | 0.00 | 0.00 | 97 | 1013.0 |
| 20260506041503 | 54 | 227 | 6.1 | 13.0 | 0.00 | 0.00 | 0.00 | 98 | 1013.6 |
| 20260506041012 | 54 | 214 | 6.1 | 13.0 | 0.00 | 0.00 | 0.00 | 97 | 1013.0 |
| 20260506040518 | 54 | 197 | 5.2 | 13.0 | 0.00 | 0.00 | 0.00 | 97 | 1013.2 |
| 20260506040031 | 54 | 248 | 4.3 | 13.0 | 0.00 | 0.00 | 0.00 | 97 | 1013.2 |
| 20260506040007 | 54 | 219 | 4.3 | 13.9 | 0.00 | 0.00 | 0.00 | 97 | 1013.8 |
| 20260506035507 | 54 | 202 | 5.2 | 14.8 | 0.00 | 0.00 | 0.00 | 97 | 1013.1 |
| 20260506035007 | 54 | 236 | 6.1 | 14.8 | 0.00 | 0.00 | 0.00 | 97 | 1013.1 |
| 20260506034523 | 54 | 229 | 4.3 | 14.8 | 0.00 | 0.00 | 0.00 | 97 | 1013.1 |
| 20260506034504 | 54 | 227 | 4.3 | 15.6 | 0.00 | 0.00 | 0.00 | 97 | 1013.7 |
| 20260506034008 | 55 | 234 | 5.2 | 16.5 | 0.00 | 0.00 | 0.00 | 97 | 1013.0 |
| 20260506033511 | 55 | 272 | 6.1 | 16.5 | 0.00 | 0.00 | 0.00 | 97 | 1013.1 |
| 20260506033030 | 55 | 226 | 5.2 | 15.6 | 0.00 | 0.00 | 0.00 | 97 | 1013.0 |
| 20260506033006 | 55 | 225 | 5.2 | 14.8 | 0.00 | 0.00 | 0.00 | 97 | 1013.7 |
| 20260506032518 | 55 | 236 | 3.5 | 13.0 | 0.00 | 0.00 | 0.00 | 97 | 1013.0 |
| 20260506032009 | 55 | 207 | 4.3 | 13.9 | 0.00 | 0.00 | 0.00 | 96 | 1013.1 |
| 20260506031529 | 55 | 246 | 6.1 | 13.9 | 0.00 | 0.00 | 0.00 | 96 | 1013.1 |
| 20260506031011 | 55 | 232 | 6.1 | 13.0 | 0.00 | 0.00 | 0.00 | 96 | 1013.0 |
| 20260506030513 | 55 | 197 | 4.3 | 18.2 | 0.00 | 0.00 | 0.00 | 96 | 1013.1 |
| 20260506030031 | 55 | 200 | 7.8 | 18.2 | 0.00 | 0.00 | 0.00 | 96 | 1013.2 |
| 20260506030004 | 55 | 194 | 8.7 | 19.1 | 0.00 | 0.00 | 0.00 | 97 | 1013.6 |
| 20260506025506 | 55 | 241 | 5.2 | 13.9 | 0.00 | 0.00 | 0.00 | 96 | 1013.0 |
| 20260506025010 | 55 | 212 | 4.3 | 13.9 | 0.00 | 0.00 | 0.00 | 96 | 1013.0 |
| 20260506024524 | 55 | 238 | 5.2 | 13.9 | 0.00 | 0.00 | 0.00 | 95 | 1013.0 |
| 20260506024009 | 55 | 260 | 3.5 | 12.2 | 0.00 | 0.00 | 0.00 | 95 | 1013.1 |
| 20260506023507 | 55 | 288 | 6.1 | 13.0 | 0.00 | 0.00 | 0.00 | 96 | 1013.1 |
| 20260506023023 | 55 | 196 | 4.3 | 13.0 | 0.00 | 0.00 | 0.00 | 95 | 1013.0 |
| 20260506022505 | 55 | 282 | 5.2 | 14.8 | 0.00 | 0.00 | 0.00 | 95 | 1013.0 |
| 20260506022010 | 55 | 295 | 7.0 | 14.8 | 0.00 | 0.00 | 0.00 | 95 | 1012.9 |
| 20260506021527 | 55 | 250 | 6.1 | 14.8 | 0.00 | 0.00 | 0.00 | 95 | 1012.9 |
| 20260506021008 | 55 | 240 | 3.5 | 14.8 | 0.00 | 0.00 | 0.00 | 95 | 1012.9 |
| 20260506020512 | 55 | 270 | 4.3 | 17.4 | 0.00 | 0.00 | 0.00 | 94 | 1012.8 |
| 20260506020028 | 55 | 313 | 6.1 | 17.4 | 0.00 | 0.00 | 0.00 | 94 | 1012.9 |
| 20260506020005 | 55 | 308 | 6.1 | 18.2 | 0.00 | 0.00 | 0.00 | 95 | 1013.6 |
| 20260506015508 | 55 | 271 | 5.2 | 13.9 | 0.00 | 0.00 | 0.00 | 94 | 1012.8 |
| 20260506015011 | 55 | 296 | 5.2 | 13.9 | 0.00 | 0.00 | 0.00 | 94 | 1012.8 |
| 20260506014533 | 55 | 246 | 7.0 | 14.8 | 0.00 | 0.00 | 0.00 | 94 | 1012.8 |
| 20260506014010 | 55 | 217 | 7.0 | 14.8 | 0.00 | 0.00 | 0.00 | 94 | 1012.8 |
| 20260506013511 | 55 | 264 | 5.2 | 13.0 | 0.00 | 0.00 | 0.00 | 94 | 1012.7 |
| 20260506013030 | 55 | 240 | 5.2 | 15.6 | 0.00 | 0.00 | 0.00 | 93 | 1012.7 |
| 20260506013002 | 55 | 238 | 5.2 | 16.5 | 0.00 | 0.00 | 0.00 | 94 | 1013.3 |
| 20260506012509 | 55 | 240 | 5.2 | 17.4 | 0.00 | 0.00 | 0.00 | 93 | 1012.5 |
| 20260506012009 | 55 | 255 | 7.8 | 17.4 | 0.00 | 0.00 | 0.00 | 93 | 1012.4 |
| 20260506011525 | 55 | 207 | 7.8 | 14.8 | 0.00 | 0.00 | 0.00 | 94 | 1012.4 |
| 20260506011008 | 55 | 261 | 6.1 | 13.9 | 0.00 | 0.00 | 0.00 | 93 | 1012.3 |
| 20260506010510 | 55 | 238 | 6.1 | 17.4 | 0.00 | 0.00 | 0.00 | 93 | 1012.4 |
| 20260506010028 | 55 | 237 | 7.0 | 17.4 | 0.00 | 0.00 | 0.00 | 93 | 1012.3 |
| 20260506010003 | 55 | 239 | 7.0 | 18.2 | 0.00 | 0.00 | 0.00 | 94 | 1013.0 |
| 20260506005507 | 55 | 254 | 4.3 | 13.0 | 0.00 | 0.00 | 0.00 | 93 | 1012.3 |
| 20260506005012 | 55 | 222 | 4.3 | 13.9 | 0.00 | 0.00 | 0.00 | 93 | 1012.1 |
| 20260506004536 | 55 | 251 | 5.2 | 14.8 | 0.00 | 0.00 | 0.00 | 93 | 1012.1 |
| 20260506004010 | 55 | 270 | 4.3 | 15.6 | 0.00 | 0.00 | 0.00 | 93 | 1012.0 |
| 20260506003511 | 55 | 239 | 6.1 | 18.2 | 0.00 | 0.00 | 0.00 | 92 | 1011.8 |
| 20260506003026 | 55 | 243 | 6.1 | 18.2 | 0.00 | 0.00 | 0.00 | 92 | 1011.7 |
| 20260506002511 | 55 | 196 | 6.1 | 17.4 | 0.00 | 0.00 | 0.00 | 92 | 1011.7 |
| 20260506002010 | 55 | 205 | 7.0 | 17.4 | 0.00 | 0.00 | 0.00 | 92 | 1011.6 |
| 20260506001527 | 55 | 192 | 5.2 | 16.5 | 0.00 | 0.00 | 0.00 | 92 | 1011.7 |
| 20260506001010 | 55 | 219 | 4.3 | 16.5 | 0.00 | 0.00 | 0.00 | 92 | 1011.6 |
| 20260506000511 | 55 | 246 | 6.1 | 15.6 | 0.00 | 0.00 | 0.00 | 92 | 1011.6 |
| 20260506000034 | 55 | 264 | 7.0 | 16.5 | 0.00 | 0.00 | 0.00 | 92 | 1011.6 |
| 20260506000003 | 55 | 194 | 7.0 | 17.4 | 0.00 | 0.00 | 0.00 | 93 | 1012.1 |
| 20260505235511 | 55 | 257 | 5.2 | 17.4 | 0.00 | 0.00 | 0.00 | 92 | 1011.5 |
| 20260505235007 | 55 | 249 | 6.1 | 17.4 | 0.00 | 0.00 | 0.00 | 92 | 1011.3 |
| 20260505234528 | 55 | 281 | 7.0 | 17.4 | 0.00 | 0.00 | 0.00 | 92 | 1011.3 |
| 20260505234006 | 55 | 254 | 4.3 | 16.5 | 0.00 | 0.00 | 0.00 | 92 | 1011.3 |
| 20260505233513 | 55 | 191 | 6.1 | 19.1 | 0.00 | 0.00 | 0.00 | 92 | 1011.2 |
| 20260505233026 | 55 | 226 | 7.0 | 19.1 | 0.00 | 0.00 | 0.00 | 92 | 1011.2 |
| 20260505232512 | 56 | 200 | 7.8 | 17.4 | 0.00 | 0.00 | 0.00 | 92 | 1011.3 |
| 20260505232010 | 56 | 266 | 6.1 | 13.0 | 0.00 | 0.00 | 0.00 | 92 | 1011.1 |
| 20260505231527 | 56 | 210 | 5.2 | 21.7 | 0.00 | 0.00 | 0.00 | 92 | 1011.0 |
| 20260505231010 | 56 | 197 | 6.1 | 21.7 | 0.00 | 0.00 | 0.00 | 92 | 1010.9 |
| 20260505230511 | 56 | 239 | 7.8 | 20.0 | 0.00 | 0.00 | 0.00 | 91 | 1011.0 |
| 20260505230032 | 56 | 243 | 6.1 | 15.6 | 0.00 | 0.00 | 0.00 | 91 | 1010.9 |
| 20260505230008 | 56 | 210 | 7.0 | 16.5 | 0.00 | 0.00 | 0.00 | 92 | 1011.5 |
| 20260505225506 | 56 | 207 | 7.8 | 15.6 | 0.00 | 0.00 | 0.00 | 91 | 1010.8 |
| 20260505225007 | 56 | 290 | 4.3 | 21.7 | 0.00 | 0.00 | 0.00 | 91 | 1010.9 |
| 20260505224536 | 57 | 274 | 7.8 | 21.7 | 0.00 | 0.00 | 0.00 | 91 | 1010.8 |
| 20260505224012 | 57 | 230 | 6.1 | 15.6 | 0.00 | 0.00 | 0.00 | 91 | 1010.8 |
| 20260505223514 | 57 | 259 | 7.8 | 19.1 | 0.00 | 0.00 | 0.00 | 91 | 1010.7 |
| 20260505223041 | 57 | 229 | 7.0 | 19.1 | 0.00 | 0.00 | 0.00 | 91 | 1010.7 |
| 20260505222504 | 57 | 222 | 4.3 | 22.6 | 0.00 | 0.00 | 0.00 | 91 | 1010.6 |
| 20260505222009 | 57 | 264 | 7.0 | 22.6 | 0.00 | 0.00 | 0.00 | 90 | 1010.5 |
| 20260505221519 | 58 | 225 | 6.1 | 16.5 | 0.00 | 0.00 | 0.00 | 91 | 1010.5 |
| 20260505221004 | 58 | 202 | 8.7 | 17.4 | 0.00 | 0.00 | 0.00 | 91 | 1010.5 |
| 20260505220503 | 58 | 248 | 7.0 | 17.4 | 0.00 | 0.00 | 0.00 | 91 | 1010.5 |
| 20260505220022 | 58 | 312 | 7.8 | 21.7 | 0.00 | 0.00 | 0.00 | 90 | 1010.6 |
| 20260505220003 | 58 | 271 | 8.7 | 22.6 | 0.00 | 0.00 | 0.00 | 91 | 1011.1 |
| 20260505215505 | 58 | 252 | 8.7 | 21.7 | 0.00 | 0.00 | 0.00 | 90 | 1010.6 |
| 20260505215007 | 58 | 215 | 4.3 | 17.4 | 0.00 | 0.00 | 0.00 | 90 | 1010.6 |
| 20260505214512 | 58 | 262 | 3.5 | 16.5 | 0.00 | 0.00 | 0.00 | 90 | 1010.6 |
| 20260505214006 | 59 | 243 | 6.1 | 15.6 | 0.00 | 0.00 | 0.00 | 90 | 1010.5 |
| 20260505213504 | 59 | 248 | 5.2 | 15.6 | 0.00 | 0.00 | 0.00 | 90 | 1010.4 |
| 20260505213012 | 59 | 241 | 7.8 | 15.6 | 0.00 | 0.00 | 0.00 | 90 | 1010.5 |
| 20260505212504 | 59 | 197 | 4.3 | 11.3 | 0.00 | 0.00 | 0.00 | 90 | 1010.6 |
| 20260505212004 | 59 | 261 | 4.3 | 12.2 | 0.00 | 0.00 | 0.00 | 90 | 1010.5 |
| 20260505211516 | 58 | 259 | 4.3 | 12.2 | 0.00 | 0.00 | 0.00 | 90 | 1010.5 |
| 20260505211007 | 58 | 248 | 4.3 | 20.0 | 0.00 | 0.00 | 0.00 | 90 | 1010.6 |
| 20260505210505 | 59 | 240 | 8.7 | 20.0 | 0.00 | 0.00 | 0.00 | 90 | 1010.6 |
| 20260505210010 | 59 | 198 | 5.2 | 15.6 | 0.00 | 0.00 | 0.00 | 90 | 1010.6 |
| 20260505210003 | 59 | 194 | 5.2 | 15.6 | 0.00 | 0.00 | 0.00 | 91 | 1010.9 |
| 20260505205509 | 59 | 242 | 5.2 | 15.6 | 0.00 | 0.00 | 0.00 | 90 | 1010.5 |
| 20260505205006 | 59 | 207 | 6.1 | 16.5 | 0.00 | 0.00 | 0.00 | 90 | 1010.4 |
| 20260505204525 | 59 | 210 | 6.1 | 16.5 | 0.00 | 0.00 | 0.00 | 90 | 1010.8 |
| 20260505204007 | 59 | 177 | 6.1 | 14.8 | 0.00 | 0.00 | 0.00 | 90 | 1010.7 |
| 20260505203503 | 59 | 252 | 5.2 | 14.8 | 0.00 | 0.00 | 0.00 | 90 | 1010.6 |
| 20260505203008 | 59 | 241 | 5.2 | 15.6 | 0.00 | 0.00 | 0.00 | 90 | 1010.4 |
| 20260505202503 | 59 | 204 | 9.6 | 16.5 | 0.00 | 0.00 | 0.00 | 90 | 1010.5 |